FW3090 Weather Reports


time (UTC)temp
C
wind
direction
speed
KPH
gust
KPH
rain 1hr
cm
rain 24hr
cm
rain mn
cm
humidity
%
barometer
mb
20260906172623 25 119 4.8 19.3 0.00 0.00 0.00 70 1019.8
20260906172342 24 171 4.8 19.3 0.00 0.00 0.00 72 1019.9
20260906171616 25 88 4.8 16.1 0.00 0.00 0.00 71 1020.1
20260906171109 25 109 4.8 16.1 0.00 0.00 0.00 70 1020.2
20260906170604 24 171 6.4 19.3 0.00 0.00 0.00 72 1020.2
20260906170058 23 88 8.0 19.3 0.00 0.00 0.00 72 1020.0
20260906165552 23 84 6.4 14.5 0.00 0.00 0.00 73 1020.0
20260906165045 23 111 4.8 14.5 0.00 0.00 0.00 73 1020.1
20260906164540 23 83 4.8 14.5 0.00 0.00 0.00 75 1020.1
20260906164035 23 101 4.8 12.9 0.00 0.00 0.00 75 1020.1
20260906163527 23 86 4.8 12.9 0.00 0.00 0.00 75 1020.2
20260906163022 23 111 3.2 12.9 0.00 0.00 0.00 77 1020.2
20260906162515 23 120 1.6 11.3 0.00 0.00 0.00 77 1020.3
20260906162231 23 161 3.2 12.9 0.00 0.00 0.00 76 1020.3
20260906161505 22 170 6.4 19.3 0.00 0.00 0.00 76 1020.1
20260906160957 22 98 6.4 19.3 0.00 0.00 0.00 76 1020.1
20260906160452 22 109 6.4 14.5 0.00 0.00 0.00 77 1020.2
20260906155945 22 76 4.8 14.5 0.00 0.00 0.00 77 1020.2
20260906155441 22 69 6.4 14.5 0.00 0.00 0.00 77 1020.2
20260906154934 22 78 6.4 14.5 0.00 0.00 0.00 79 1020.2
20260906154428 22 71 4.8 14.5 0.00 0.00 0.00 78 1020.3
20260906153924 22 115 4.8 14.5 0.00 0.00 0.00 79 1020.3
20260906153416 21 51 4.8 14.5 0.00 0.00 0.00 80 1020.4
20260906152911 21 155 4.8 12.9 0.00 0.00 0.00 80 1020.5
20260906152404 21 89 4.8 14.5 0.00 0.00 0.00 82 1020.5
20260906151858 21 126 6.4 14.5 0.00 0.00 0.00 83 1020.6
20260906151351 20 111 6.4 14.5 0.00 0.00 0.00 83 1020.6
20260906150846 20 89 4.8 14.5 0.00 0.00 0.00 84 1020.6
20260906150340 20 113 4.8 12.9 0.00 0.00 0.00 86 1020.5
20260906145834 20 140 6.4 14.5 0.00 0.00 0.00 87 1020.4
20260906145547 20 92 4.8 14.5 0.00 0.00 0.00 88 1020.3
20260906144822 20 114 4.8 11.3 0.00 0.00 0.00 89 1020.1
20260906144315 19 116 6.4 14.5 0.00 0.00 0.00 90 1020.2
20260906144032 19 101 6.4 14.5 0.00 0.00 0.00 90 1020.3
20260906143304 19 69 3.2 12.9 0.00 0.00 0.00 91 1020.1
20260906142758 19 80 4.8 12.9 0.00 0.00 0.00 91 1020.2
20260906142519 18 94 4.8 12.9 0.00 0.00 0.00 91 1020.2
20260906141745 18 72 4.8 11.3 0.00 0.00 0.00 91 1020.1
20260906141241 18 94 3.2 9.7 0.00 0.00 0.00 91 1020.1
20260906140734 18 82 3.2 6.4 0.00 0.00 0.00 91 1020.1
20260906140227 18 111 3.2 11.3 0.00 0.00 0.00 91 1020.1
20260906135722 18 111 3.2 11.3 0.00 0.00 0.00 91 1020.0
20260906135217 18 117 3.2 9.7 0.00 0.00 0.00 91 1020.0
20260906134709 18 103 3.2 9.7 0.00 0.00 0.00 91 1019.9
20260906134205 18 97 3.2 6.4 0.00 0.00 0.00 91 1020.0
20260906133923 18 99 4.8 11.3 0.00 0.00 0.00 91 1020.0
20260906133412 18 84 4.8 11.3 0.00 0.00 0.00 91 1020.1
20260906132646 18 114 3.2 11.3 0.00 0.00 0.00 91 1020.2
20260906132139 18 91 0.0 4.8 0.00 0.00 0.00 91 1020.4
20260906131634 18 141 1.6 4.8 0.00 0.00 0.00 91 1020.3
20260906131128 18 92 1.6 6.4 0.00 0.00 0.00 91 1020.2
20260906130622 18 89 3.2 6.4 0.00 0.00 0.00 91 1020.3
20260906130115 18 89 3.2 9.7 0.00 0.00 0.00 91 1020.1
20260906125610 18 144 1.6 9.7 0.00 0.00 0.00 91 1020.0
20260906125103 18 95 3.2 6.4 0.00 0.00 0.00 91 1020.0
20260906124558 18 94 3.2 6.4 0.00 0.00 0.00 91 1019.9
20260906124052 18 105 1.6 4.8 0.00 0.00 0.00 91 1019.8
20260906123545 18 101 1.6 8.0 0.00 0.00 0.00 91 1019.9
20260906123040 18 93 0.0 8.0 0.00 0.00 0.00 91 1019.9
20260906122533 18 92 0.0 0.0 0.00 0.00 0.00 91 1020.0
20260906122247 18 87 0.0 0.0 0.00 0.00 0.00 91 1019.9
20260906121521 18 87 0.0 0.0 0.00 0.00 0.00 91 1019.7
20260906121016 18 87 0.0 0.0 0.00 0.00 0.00 91 1019.7
20260906120509 18 87 0.0 0.0 0.00 0.00 0.00 91 1019.7
20260906120005 18 87 0.0 0.0 0.00 0.00 0.00 91 1019.5
20260906115457 18 87 0.0 0.0 0.00 0.00 0.00 90 1019.4
20260906114951 18 87 0.0 0.0 0.00 0.00 0.00 90 1019.2
20260906114445 18 87 0.0 0.0 0.00 0.00 0.00 90 1019.1
20260906113940 18 87 0.0 0.0 0.00 0.00 0.00 90 1019.0
20260906113440 18 87 0.0 0.0 0.00 0.00 0.00 90 1018.8
20260906112939 18 87 0.0 1.6 0.00 0.00 0.00 90 1018.7
20260906112439 18 87 1.6 3.2 0.00 0.00 0.00 90 1018.6
20260906111937 18 87 1.6 3.2 0.00 0.00 0.00 90 1018.6
20260906111437 18 87 1.6 6.4 0.00 0.00 0.00 90 1018.6
20260906110937 18 87 0.0 6.4 0.00 0.00 0.00 90 1018.4
20260906110437 18 149 0.0 0.0 0.00 0.00 0.00 90 1018.5
20260906105938 18 149 0.0 0.0 0.00 0.00 0.00 90 1018.5
20260906105439 18 149 0.0 0.0 0.00 0.00 0.00 90 1018.5
20260906104939 18 149 0.0 0.0 0.00 0.00 0.00 90 1018.5
20260906104433 18 149 0.0 0.0 0.00 0.00 0.00 89 1018.6
20260906103933 18 149 0.0 0.0 0.00 0.00 0.00 89 1018.8
20260906103433 18 149 0.0 0.0 0.00 0.00 0.00 89 1018.8
20260906102933 18 149 0.0 0.0 0.00 0.00 0.00 89 1018.6
20260906102433 18 149 0.0 0.0 0.00 0.00 0.00 89 1018.7
20260906101933 18 149 0.0 0.0 0.00 0.00 0.00 89 1018.6
20260906101434 18 149 0.0 0.0 0.00 0.00 0.00 89 1018.6
20260906100933 18 149 0.0 0.0 0.00 0.00 0.00 89 1018.4
20260906100433 18 149 0.0 0.0 0.00 0.00 0.00 89 1018.3
20260906095931 18 149 0.0 0.0 0.00 0.00 0.00 89 1018.2
20260906095429 18 149 0.0 0.0 0.00 0.00 0.00 89 1018.0
20260906094929 19 149 0.0 0.0 0.00 0.00 0.00 89 1017.8
20260906094430 19 149 0.0 0.0 0.00 0.00 0.00 89 1017.8
20260906094149 19 150 1.6 4.8 0.00 0.00 0.00 90 1017.8
20260906093648 19 149 1.6 4.8 0.00 0.00 0.00 90 1017.8
20260906092927 19 149 0.0 4.8 0.00 0.00 0.00 90 1017.8
20260906092649 19 96 0.0 3.2 0.00 0.00 0.00 90 1017.9
20260906091925 19 96 1.6 9.7 0.00 0.00 0.00 90 1017.7
20260906091423 19 96 3.2 9.7 0.00 0.00 0.00 90 1017.6
20260906090923 19 59 4.8 9.7 0.00 0.00 0.00 90 1017.8
20260906090646 19 101 4.8 12.9 0.00 0.00 0.00 90 1017.9
20260906085921 19 90 4.8 12.9 0.00 0.00 0.00 90 1017.7
20260906085421 19 94 4.8 11.3 0.00 0.00 0.00 90 1017.7
20260906084915 19 90 4.8 11.3 0.00 0.00 0.00 91 1017.8
20260906084409 19 90 4.8 11.3 0.00 0.00 0.00 91 1017.8
20260906083903 19 69 4.8 11.3 0.00 0.00 0.00 91 1017.9
20260906083356 19 96 3.2 14.5 0.00 0.00 0.00 91 1017.9
20260906082850 19 92 4.8 14.5 0.00 0.00 0.00 91 1017.9
20260906082601 19 82 6.4 12.9 0.00 0.00 0.00 91 1017.9
20260906081839 19 84 4.8 11.3 0.00 0.00 0.00 91 1017.9
20260906081332 19 76 4.8 12.9 0.00 0.00 0.00 91 1017.8
20260906080828 18 97 4.8 9.7 0.00 0.00 0.00 90 1018.0
20260906080320 18 91 3.2 6.4 0.00 0.00 0.00 90 1018.2
20260906075815 18 94 3.2 4.8 0.00 0.00 0.00 90 1018.1
20260906075308 18 94 3.2 4.8 0.00 0.00 0.00 90 1018.1
20260906074803 19 94 3.2 4.8 0.00 0.00 0.00 90 1017.9
20260906074257 19 95 3.2 6.4 0.00 0.00 0.00 90 1017.9
20260906073750 19 95 3.2 6.4 0.00 0.00 0.00 90 1018.0
20260906073245 19 96 1.6 6.4 0.00 0.00 0.00 90 1018.1
20260906072738 19 94 3.2 6.4 0.00 0.00 0.00 90 1018.1
20260906072232 19 94 3.2 6.4 0.00 0.00 0.00 90 1018.1
20260906071726 19 92 3.2 6.4 0.00 0.00 0.00 90 1018.2
20260906071221 19 92 3.2 6.4 0.00 0.00 0.00 90 1018.2
20260906070715 19 92 1.6 6.4 0.00 0.00 0.00 90 1018.3
20260906070209 19 94 1.6 3.2 0.00 0.00 0.00 90 1018.4
20260906065702 19 94 1.6 3.2 0.00 0.00 0.00 90 1018.3
20260906065156 19 94 1.6 9.7 0.00 0.00 0.00 89 1018.5
20260906064651 19 94 1.6 9.7 0.00 0.00 0.00 89 1018.4
20260906064144 19 87 0.0 4.8 0.00 0.00 0.00 89 1018.4
20260906064126 19 84 0.0 0.0 0.00 0.00 0.00 89 1018.4
20260906063134 19 84 0.0 0.0 0.00 0.00 0.00 89 1018.4
20260906062627 19 84 0.0 0.0 0.00 0.00 0.00 88 1018.5
20260906062121 19 84 0.0 0.0 0.00 0.00 0.00 88 1018.5
20260906061837 19 84 0.0 0.0 0.00 0.00 0.00 88 1018.5
20260906061334 19 84 0.0 0.0 0.00 0.00 0.00 88 1018.4
20260906060602 19 84 0.0 0.0 0.00 0.00 0.00 87 1018.4
20260906060057 19 84 0.0 0.0 0.00 0.00 0.00 88 1018.4
20260906055550 19 84 0.0 0.0 0.00 0.00 0.00 87 1018.3
20260906055045 20 84 0.0 0.0 0.00 0.00 0.00 87 1018.4
20260906054539 20 84 0.0 0.0 0.00 0.00 0.00 87 1018.5
20260906054255 20 84 0.0 0.0 0.00 0.00 0.00 87 1018.3
20260906053527 20 84 0.0 0.0 0.00 0.00 0.00 87 1018.5
20260906053244 20 84 0.0 0.0 0.00 0.00 0.00 87 1018.4
20260906052514 20 84 0.0 0.0 0.00 0.00 0.00 88 1018.4
20260906052009 20 84 0.0 0.0 0.00 0.00 0.00 87 1018.4
20260906051503 20 84 0.0 0.0 0.00 0.00 0.00 87 1018.3
20260906051224 20 84 0.0 0.0 0.00 0.00 0.00 87 1018.2
20260906050451 20 84 0.0 0.0 0.00 0.00 0.00 87 1018.0
20260906045944 20 84 0.0 0.0 0.00 0.00 0.00 87 1018.1
20260906045440 20 84 0.0 0.0 0.00 0.00 0.00 87 1018.1
20260906044933 20 84 0.0 0.0 0.00 0.00 0.00 87 1018.1
20260906044426 20 84 0.0 0.0 0.00 0.00 0.00 86 1018.2
20260906043921 20 84 0.0 0.0 0.00 0.00 0.00 86 1018.1
20260906043416 20 84 0.0 0.0 0.00 0.00 0.00 86 1018.1
20260906042909 20 84 0.0 0.0 0.00 0.00 0.00 86 1018.2
20260906042628 20 84 0.0 0.0 0.00 0.00 0.00 86 1018.2
20260906041856 20 84 0.0 0.0 0.00 0.00 0.00 86 1018.2
20260906041351 20 84 0.0 0.0 0.00 0.00 0.00 86 1018.2
20260906041107 21 84 0.0 0.0 0.00 0.00 0.00 86 1018.4
20260906040340 21 84 0.0 0.0 0.00 0.00 0.00 86 1018.4
20260906035832 21 84 0.0 0.0 0.00 0.00 0.00 86 1018.3
20260906035328 21 84 0.0 0.0 0.00 0.00 0.00 86 1018.4
20260906035049 21 84 0.0 0.0 0.00 0.00 0.00 86 1018.1
20260906034315 21 84 0.0 0.0 0.00 0.00 0.00 86 1018.2
20260906033809 21 84 0.0 3.2 0.00 0.00 0.00 86 1018.1
20260906033302 21 84 1.6 4.8 0.00 0.00 0.00 86 1018.0
20260906032757 21 84 3.2 4.8 0.00 0.00 0.00 85 1018.0
20260906032250 21 84 3.2 4.8 0.00 0.00 0.00 85 1017.9
20260906031746 21 84 1.6 4.8 0.00 0.00 0.00 85 1017.8
20260906031459 21 84 3.2 4.8 0.00 0.00 0.00 85 1017.7
20260906030953 21 84 1.6 4.8 0.00 0.00 0.00 84 1017.6
20260906030228 21 84 1.6 3.2 0.00 0.00 0.00 84 1017.6
20260906025721 21 84 0.0 3.2 0.00 0.00 0.00 84 1017.5
20260906025214 21 84 0.0 0.0 0.00 0.00 0.00 84 1017.4
20260906024709 21 84 0.0 0.0 0.00 0.00 0.00 84 1017.5
20260906024203 22 84 1.6 4.8 0.00 0.00 0.00 84 1017.2
20260906023657 21 84 3.2 6.4 0.00 0.00 0.00 84 1017.2
20260906023150 21 84 3.2 9.7 0.00 0.00 0.00 84 1017.0
20260906022909 21 84 4.8 9.7 0.00 0.00 0.00 84 1017.0
20260906022140 21 83 3.2 9.7 0.00 0.00 0.00 84 1016.9
20260906021633 21 78 3.2 9.7 0.00 0.00 0.00 85 1016.9
20260906021127 21 89 1.6 6.4 0.00 0.00 0.00 84 1016.8
20260906020620 22 94 0.0 0.0 0.00 0.00 0.00 84 1016.8
20260906020314 22 94 0.0 0.0 0.00 0.00 0.00 84 1016.7
20260906020308 22 94 0.0 0.0 0.00 0.00 0.00 84 1016.8
20260906015104 22 94 0.0 0.0 0.00 0.00 0.00 83 1016.6
20260906014556 22 97 0.0 0.0 0.00 0.00 0.00 83 1016.4
20260906014051 22 97 0.0 0.0 0.00 0.00 0.00 83 1016.4
20260906013802 22 97 0.0 0.0 0.00 0.00 0.00 82 1016.3
20260906013039 22 97 0.0 0.0 0.00 0.00 0.00 82 1016.3
20260906012532 22 97 0.0 0.0 0.00 0.00 0.00 82 1016.1
20260906012027 22 97 0.0 0.0 0.00 0.00 0.00 82 1016.0
20260906011521 23 97 0.0 0.0 0.00 0.00 0.00 82 1015.9
20260906011014 23 97 0.0 0.0 0.00 0.00 0.00 82 1015.9
20260906010509 23 98 0.0 0.0 0.00 0.00 0.00 82 1015.9
20260906010006 23 98 0.0 0.0 0.00 0.00 0.00 82 1015.6
20260906005456 23 98 0.0 0.0 0.00 0.00 0.00 82 1015.5
20260906004951 23 98 0.0 0.0 0.00 0.00 0.00 82 1015.4
20260906004707 23 98 0.0 0.0 0.00 0.00 0.00 81 1015.3
20260906003940 23 98 0.0 0.0 0.00 0.00 0.00 81 1015.4
20260906003433 24 98 0.0 0.0 0.00 0.00 0.00 81 1015.3
20260906002926 24 98 0.0 0.0 0.00 0.00 0.00 80 1015.5
20260906002643 24 98 1.6 4.8 0.00 0.00 0.00 80 1015.4
20260906001916 24 98 3.2 6.4 0.00 0.00 0.00 80 1015.3
20260906001630 24 94 4.8 11.3 0.00 0.00 0.00 80 1015.2
20260906000902 24 92 4.8 11.3 0.00 0.00 0.00 79 1015.2
20260906000357 24 90 4.8 12.9 0.00 0.00 0.00 79 1015.3
20260905235850 24 81 6.4 14.5 0.00 0.00 0.00 79 1015.3
20260905235345 24 84 6.4 16.1 0.00 0.00 0.00 79 1015.3
20260905235056 24 71 6.4 16.1 0.00 0.00 0.00 79 1015.2
20260905234332 25 100 8.0 14.5 0.00 0.00 0.00 78 1015.2
20260905233827 25 84 8.0 17.7 0.00 0.00 0.00 78 1015.2
20260905233321 25 94 8.0 19.3 0.00 0.00 0.00 77 1015.2
20260905232814 25 94 8.0 20.9 0.00 0.00 0.00 77 1015.3
20260905232309 25 97 6.4 17.7 0.00 0.00 0.00 77 1015.4
20260905231802 25 86 4.8 12.9 0.00 0.00 0.00 77 1015.6
20260905231524 25 123 3.2 8.0 0.00 0.00 0.00 76 1015.5
20260905230750 25 51 3.2 12.9 0.00 0.00 0.00 76 1015.6
20260905230250 25 112 4.8 14.5 0.00 0.00 0.00 76 1015.6
20260905225750 25 101 3.2 14.5 0.00 0.00 0.00 76 1015.7
20260905225251 25 108 0.0 4.8 0.00 0.00 0.00 76 1015.8
20260905224751 25 105 1.6 6.4 0.00 0.00 0.00 76 1015.8
20260905224251 25 110 4.8 14.5 0.00 0.00 0.00 76 1015.8
20260905223750 25 84 6.4 14.5 0.00 0.00 0.00 76 1015.7
20260905223510 25 125 4.8 20.9 0.00 0.00 0.00 76 1015.7
20260905222749 25 99 4.8 20.9 0.00 0.00 0.00 76 1015.6
20260905222249 25 70 4.8 16.1 0.00 0.00 0.00 77 1015.6
20260905221749 25 130 6.4 16.1 0.00 0.00 0.00 76 1015.6
20260905221249 26 25 6.4 16.1 0.00 0.00 0.00 76 1015.7
20260905220749 26 83 6.4 16.1 0.00 0.00 0.00 76 1015.8
20260905220248 26 73 6.4 16.1 0.00 0.00 0.00 75 1015.7
20260905215745 26 87 4.8 12.9 0.00 0.00 0.00 76 1015.8
20260905215246 26 120 4.8 12.9 0.00 0.00 0.00 75 1015.8
20260905214745 26 78 3.2 12.9 0.00 0.00 0.00 75 1015.9
20260905214245 26 92 1.6 12.9 0.00 0.00 0.00 74 1016.0
20260905213744 26 76 3.2 12.9 0.00 0.00 0.00 75 1016.0
20260905213244 26 66 3.2 12.9 0.00 0.00 0.00 73 1016.0
20260905212745 26 75 4.8 12.9 0.00 0.00 0.00 73 1016.1
20260905212245 26 87 4.8 11.3 0.00 0.00 0.00 73 1016.2
20260905211745 26 90 4.8 12.9 0.00 0.00 0.00 73 1016.2
20260905211244 26 85 4.8 12.9 0.00 0.00 0.00 73 1016.3
20260905210745 27 83 4.8 11.3 0.00 0.00 0.00 73 1016.3
20260905210244 27 87 4.8 11.3 0.00 0.00 0.00 72 1016.4
20260905205745 27 85 3.2 11.3 0.00 0.00 0.00 73 1016.3
20260905205245 27 93 1.6 11.3 0.00 0.00 0.00 74 1016.3
20260905205010 27 65 0.0 6.4 0.00 0.00 0.00 72 1016.4
20260905204244 26 89 0.0 0.0 0.00 0.00 0.00 75 1016.4
20260905203744 26 80 0.0 0.0 0.00 0.00 0.00 77 1016.3
20260905203245 26 90 0.0 0.0 0.00 0.00 0.00 78 1016.4
20260905202737 26 90 0.0 0.0 0.00 0.00 0.00 75 1016.5
20260905202455 26 213 0.0 0.0 0.00 0.00 0.00 76 1016.4
20260905201726 26 209 0.0 0.0 0.00 0.00 0.00 75 1016.4
20260905201220 27 208 0.0 0.0 0.00 0.00 0.00 74 1016.5
20260905200714 27 182 0.0 0.0 0.00 0.00 0.00 75 1016.6
20260905200208 26 257 0.0 0.0 0.00 0.00 0.00 77 1016.5
20260905195923 26 257 0.0 0.0 0.00 0.00 0.00 77 1016.5
20260905195157 26 257 0.0 0.0 0.00 0.00 0.00 80 1016.6
20260905194910 26 257 0.0 0.0 0.00 0.00 0.00 80 1016.6
20260905194143 26 257 0.0 0.0 0.00 0.00 0.00 78 1016.6
20260905193856 26 257 0.0 0.0 0.00 0.00 0.00 76 1016.7
20260905193357 26 209 0.0 0.0 0.00 0.00 0.00 77 1016.8
20260905192625 26 271 0.0 0.0 0.00 0.00 0.00 77 1016.8
20260905192604 26 221 0.0 0.0 0.00 0.00 0.00 79 1016.8
20260905191613 26 221 0.0 0.0 0.00 0.00 0.00 77 1016.8
20260905191108 26 217 0.0 0.0 0.00 0.00 0.00 78 1017.0
20260905190602 26 216 0.0 0.0 0.00 0.00 0.00 79 1016.9
20260905190056 26 218 0.0 0.0 0.00 0.00 0.00 80 1017.0
20260905185550 26 209 0.0 0.0 0.00 0.00 0.00 80 1017.0
20260905185043 26 315 0.0 0.0 0.00 0.00 0.00 80 1017.0
20260905184759 26 315 0.0 0.0 0.00 0.00 0.00 79 1016.9
20260905184031 26 315 0.0 0.0 0.00 0.00 0.00 78 1017.0
20260905183526 26 205 1.6 8.0 0.00 0.00 0.00 79 1017.0
20260905183019 26 204 1.6 8.0 0.00 0.00 0.00 78 1016.9
20260905182514 26 163 1.6 8.0 0.00 0.00 0.00 74 1017.0
20260905182007 26 167 0.0 8.0 0.00 0.00 0.00 75 1017.1
20260905181501 25 98 0.0 4.8 0.00 0.00 0.00 78 1017.1
20260905180956 25 84 1.6 4.8 0.00 0.00 0.00 78 1017.0
20260905180450 25 85 1.6 6.4 0.00 0.00 0.00 78 1017.1
20260905175943 25 93 1.6 6.4 0.00 0.00 0.00 81 1017.1
20260905175438 25 119 0.0 4.8 0.00 0.00 0.00 81 1017.1
20260905174932 25 166 1.6 6.4 0.00 0.00 0.00 82 1017.2
20260905174426 25 166 1.6 6.4 0.00 0.00 0.00 81 1017.2
20260905173920 25 166 1.6 6.4 0.00 0.00 0.00 80 1017.3
20260905173414 25 151 1.6 4.8 0.00 0.00 0.00 81 1017.3